Time,TemperatureF,DewpointF,PressureIn,WindDirection,WindDirectionDegrees,WindSpeedMPH,WindSpeedGustMPH,Humidity,HourlyPrecipIn,Conditions,Clouds,dailyrainin,SoftwareType,DateUTC
2013-04-09 00:05:00,46.0,42.0,30.26,North,-999,-999.0,-999.0,86,0.00,,,0.00,weatherlink.com 1.10,2013-04-09 07:05:00,
2013-04-09 00:20:00,45.8,42.0,30.27,North,-999,-999.0,-999.0,85,0.00,,,0.00,weatherlink.com 1.10,2013-04-09 07:20:00,
2013-04-09 00:35:00,43.2,40.0,30.27,North,-999,-999.0,-999.0,87,0.00,,,0.00,weatherlink.com 1.10,2013-04-09 07:35:00,
2013-04-09 00:50:00,41.5,39.0,30.27,North,-999,-999.0,-999.0,90,0.00,,,0.00,weatherlink.com 1.10,2013-04-09 07:50:00,
2013-04-09 01:05:00,41.7,39.0,30.28,North,-999,-999.0,-999.0,91,0.00,,,0.00,weatherlink.com 1.10,2013-04-09 08:05:00,
2013-04-09 01:20:00,40.2,38.0,30.28,North,-999,-999.0,-999.0,90,0.00,,,0.00,weatherlink.com 1.10,2013-04-09 08:20:00,
2013-04-09 01:35:00,39.2,37.0,30.28,North,-999,-999.0,-999.0,92,0.00,,,0.00,weatherlink.com 1.10,2013-04-09 08:35:00,
2013-04-09 01:51:00,38.6,37.0,30.29,North,-999,-999.0,-999.0,92,0.00,,,0.00,weatherlink.com 1.10,2013-04-09 08:51:00,
2013-04-09 02:06:00,38.4,37.0,30.29,North,-999,-999.0,-999.0,93,0.00,,,0.00,weatherlink.com 1.10,2013-04-09 09:06:00,
2013-04-09 02:51:00,37.4,36.0,30.30,North,-999,-999.0,-999.0,93,0.00,,,0.00,weatherlink.com 1.10,2013-04-09 09:51:00,
2013-04-09 03:06:00,37.4,36.0,30.30,North,-999,-999.0,-999.0,93,0.00,,,0.00,weatherlink.com 1.10,2013-04-09 10:06:00,
2013-04-09 03:36:00,36.4,35.0,30.30,North,-999,-999.0,-999.0,94,0.00,,,0.00,weatherlink.com 1.10,2013-04-09 10:36:00,
2013-04-09 03:51:00,36.2,35.0,30.30,North,-999,-999.0,-999.0,94,0.00,,,0.00,weatherlink.com 1.10,2013-04-09 10:51:00,
2013-04-09 04:06:00,36.0,35.0,30.30,North,-999,-999.0,-999.0,94,0.00,,,0.00,weatherlink.com 1.10,2013-04-09 11:06:00,
2013-04-09 04:21:00,35.9,34.0,30.30,North,-999,-999.0,-999.0,94,0.00,,,0.00,weatherlink.com 1.10,2013-04-09 11:21:00,
2013-04-09 04:36:00,35.5,34.0,30.31,North,-999,-999.0,-999.0,94,0.00,,,0.00,weatherlink.com 1.10,2013-04-09 11:36:00,
2013-04-09 04:51:00,35.3,34.0,30.31,North,-999,-999.0,-999.0,94,0.00,,,0.00,weatherlink.com 1.10,2013-04-09 11:51:00,
2013-04-09 05:07:00,35.0,34.0,30.32,North,-999,-999.0,-999.0,94,0.00,,,0.00,weatherlink.com 1.10,2013-04-09 12:07:00,
2013-04-09 05:22:00,34.9,33.0,30.33,North,-999,-999.0,-999.0,94,0.00,,,0.00,weatherlink.com 1.10,2013-04-09 12:22:00,
2013-04-09 05:37:00,35.1,34.0,30.32,North,-999,-999.0,-999.0,94,0.00,,,0.00,weatherlink.com 1.10,2013-04-09 12:37:00,
2013-04-09 05:52:00,35.0,34.0,30.33,North,-999,-999.0,-999.0,94,0.00,,,0.00,weatherlink.com 1.10,2013-04-09 12:52:00,
2013-04-09 06:07:00,34.3,33.0,30.33,North,-999,-999.0,-999.0,94,0.00,,,0.00,weatherlink.com 1.10,2013-04-09 13:07:00,
2013-04-09 06:22:00,34.1,33.0,30.33,North,-999,-999.0,-999.0,94,0.00,,,0.00,weatherlink.com 1.10,2013-04-09 13:22:00,
2013-04-09 06:37:00,34.0,33.0,30.34,North,-999,-999.0,-999.0,94,0.00,,,0.00,weatherlink.com 1.10,2013-04-09 13:37:00,
2013-04-09 06:52:00,34.5,33.0,30.34,North,-999,-999.0,-999.0,95,0.00,,,0.00,weatherlink.com 1.10,2013-04-09 13:52:00,
2013-04-09 07:07:00,34.4,33.0,30.34,North,-999,-999.0,-999.0,94,0.00,,,0.00,weatherlink.com 1.10,2013-04-09 14:07:00,
2013-04-09 07:22:00,34.7,33.0,30.34,North,-999,-999.0,-999.0,94,0.00,,,0.00,weatherlink.com 1.10,2013-04-09 14:22:00,
2013-04-09 07:37:00,34.7,33.0,30.34,North,-999,-999.0,-999.0,94,0.00,,,0.00,weatherlink.com 1.10,2013-04-09 14:37:00,
2013-04-09 07:52:00,36.4,35.0,30.34,North,-999,-999.0,-999.0,95,0.00,,,0.00,weatherlink.com 1.10,2013-04-09 14:52:00,
2013-04-09 08:07:00,36.9,35.0,30.35,North,-999,-999.0,-999.0,93,0.00,,,0.00,weatherlink.com 1.10,2013-04-09 15:07:00,
2013-04-09 08:22:00,38.9,37.0,30.35,NNE,28,0.0,2.0,93,0.00,,,0.00,weatherlink.com 1.10,2013-04-09 15:22:00,
2013-04-09 08:37:00,41.8,39.0,30.35,NE,36,1.0,4.0,89,0.00,,,0.00,weatherlink.com 1.10,2013-04-09 15:37:00,
2013-04-09 08:53:00,42.0,38.0,30.35,NNW,344,0.0,6.0,86,0.00,,,0.00,weatherlink.com 1.10,2013-04-09 15:53:00,
2013-04-09 09:08:00,43.9,40.0,30.35,NNE,26,1.0,5.0,86,0.00,,,0.00,weatherlink.com 1.10,2013-04-09 16:08:00,
2013-04-09 09:23:00,44.5,40.0,30.35,NE,50,2.0,3.0,85,0.00,,,0.00,weatherlink.com 1.10,2013-04-09 16:23:00,
2013-04-09 09:38:00,44.3,40.0,30.36,NE,35,0.0,3.0,85,0.00,,,0.00,weatherlink.com 1.10,2013-04-09 16:38:00,
2013-04-09 09:53:00,45.2,41.0,30.36,South,187,2.0,3.0,86,0.00,,,0.00,weatherlink.com 1.10,2013-04-09 16:53:00,
2013-04-09 10:08:00,46.5,41.0,30.36,South,185,4.0,4.0,82,0.00,,,0.00,weatherlink.com 1.10,2013-04-09 17:08:00,
2013-04-09 10:23:00,46.9,42.0,30.35,South,178,3.0,4.0,83,0.00,,,0.00,weatherlink.com 1.10,2013-04-09 17:23:00,
2013-04-09 10:38:00,49.1,42.0,30.35,South,180,3.0,4.0,77,0.00,,,0.00,weatherlink.com 1.10,2013-04-09 17:38:00,
2013-04-09 10:53:00,50.1,44.0,30.35,South,170,3.0,4.0,78,0.00,,,0.00,weatherlink.com 1.10,2013-04-09 17:53:00,
2013-04-09 11:08:00,50.8,43.0,30.35,South,178,3.0,3.0,75,0.00,,,0.00,weatherlink.com 1.10,2013-04-09 18:08:00,
2013-04-09 11:23:00,51.2,43.0,30.35,South,175,2.0,4.0,74,0.00,,,0.00,weatherlink.com 1.10,2013-04-09 18:23:00,
2013-04-09 11:38:00,52.5,43.0,30.34,South,178,3.0,4.0,70,0.00,,,0.00,weatherlink.com 1.10,2013-04-09 18:38:00,
2013-04-09 11:53:00,53.5,43.0,30.34,South,169,3.0,4.0,68,0.00,,,0.00,weatherlink.com 1.10,2013-04-09 18:53:00,
2013-04-09 12:08:00,55.4,44.0,30.33,SSE,165,2.0,6.0,66,0.00,,,0.00,weatherlink.com 1.10,2013-04-09 19:08:00,
2013-04-09 12:23:00,58.0,44.0,30.32,SW,219,4.0,5.0,61,0.00,,,0.00,weatherlink.com 1.10,2013-04-09 19:23:00,
2013-04-09 12:38:00,57.0,46.0,30.32,SSE,168,2.0,6.0,66,0.00,,,0.00,weatherlink.com 1.10,2013-04-09 19:38:00,
2013-04-09 12:53:00,57.2,42.0,30.32,South,175,7.0,9.0,58,0.00,,,0.00,weatherlink.com 1.10,2013-04-09 19:53:00,
2013-04-09 13:08:00,58.4,44.0,30.31,South,186,4.0,10.0,60,0.00,,,0.00,weatherlink.com 1.10,2013-04-09 20:08:00,
2013-04-09 13:23:00,58.8,44.0,30.30,SW,214,5.0,9.0,59,0.00,,,0.00,weatherlink.com 1.10,2013-04-09 20:23:00,
2013-04-09 13:38:00,60.2,46.0,30.30,SW,221,3.0,10.0,59,0.00,,,0.00,weatherlink.com 1.10,2013-04-09 20:38:00,
2013-04-09 13:53:00,60.2,46.0,30.29,SSW,213,5.0,10.0,59,0.00,,,0.00,weatherlink.com 1.10,2013-04-09 20:53:00,
2013-04-09 14:08:00,61.6,46.0,30.29,WSW,242,4.0,10.0,57,0.00,,,0.00,weatherlink.com 1.10,2013-04-09 21:08:00,
2013-04-09 14:23:00,60.3,45.0,30.28,WSW,246,7.0,11.0,57,0.00,,,0.00,weatherlink.com 1.10,2013-04-09 21:23:00,
2013-04-09 14:38:00,59.1,44.0,30.28,SW,225,2.0,15.0,58,0.00,,,0.00,weatherlink.com 1.10,2013-04-09 21:38:00,
2013-04-09 14:53:00,59.2,44.0,30.28,SSW,201,4.0,13.0,58,0.00,,,0.00,weatherlink.com 1.10,2013-04-09 21:53:00,
2013-04-09 15:08:00,57.8,44.0,30.27,WSW,246,5.0,15.0,61,0.00,,,0.00,weatherlink.com 1.10,2013-04-09 22:08:00,
2013-04-09 15:23:00,59.3,46.0,30.27,West,280,5.0,14.0,62,0.00,,,0.00,weatherlink.com 1.10,2013-04-09 22:23:00,
2013-04-09 15:38:00,57.5,45.0,30.27,SW,230,7.0,12.0,63,0.00,,,0.00,weatherlink.com 1.10,2013-04-09 22:38:00,
2013-04-09 15:53:00,55.9,45.0,30.27,WSW,251,6.0,15.0,66,0.00,,,0.00,weatherlink.com 1.10,2013-04-09 22:53:00,
2013-04-09 16:08:00,55.8,45.0,30.27,WNW,282,11.0,14.0,67,0.00,,,0.00,weatherlink.com 1.10,2013-04-09 23:08:00,
2013-04-09 16:23:00,55.9,45.0,30.27,WNW,291,4.0,13.0,67,0.00,,,0.00,weatherlink.com 1.10,2013-04-09 23:23:00,
2013-04-09 16:38:00,55.9,45.0,30.27,West,264,7.0,13.0,67,0.00,,,0.00,weatherlink.com 1.10,2013-04-09 23:38:00,
2013-04-09 16:53:00,55.6,45.0,30.27,SW,219,3.0,10.0,68,0.00,,,0.00,weatherlink.com 1.10,2013-04-09 23:53:00,
2013-04-09 17:08:00,55.3,45.0,30.27,West,263,11.0,12.0,69,0.00,,,0.00,weatherlink.com 1.10,2013-04-10 00:08:00,
2013-04-09 17:23:00,55.3,45.0,30.26,SW,232,4.0,13.0,68,0.00,,,0.00,weatherlink.com 1.10,2013-04-10 00:23:00,
2013-04-09 17:38:00,55.8,45.0,30.26,WSW,248,3.0,12.0,67,0.00,,,0.00,weatherlink.com 1.10,2013-04-10 00:38:00,
2013-04-09 17:53:00,55.7,45.0,30.26,WSW,242,5.0,13.0,67,0.00,,,0.00,weatherlink.com 1.10,2013-04-10 00:53:00,
2013-04-09 18:08:00,55.3,44.0,30.26,WSW,245,1.0,12.0,67,0.00,,,0.00,weatherlink.com 1.10,2013-04-10 01:08:00,
2013-04-09 18:23:00,55.1,44.0,30.27,West,265,7.0,11.0,67,0.00,,,0.00,weatherlink.com 1.10,2013-04-10 01:23:00,
2013-04-09 18:38:00,54.9,44.0,30.27,North,-999,-999.0,-999.0,68,0.00,,,0.00,weatherlink.com 1.10,2013-04-10 01:38:00,
2013-04-09 18:53:00,54.8,45.0,30.26,North,-999,-999.0,-999.0,69,0.00,,,0.00,weatherlink.com 1.10,2013-04-10 01:53:00,
2013-04-09 19:08:00,54.3,44.0,30.26,North,-999,-999.0,-999.0,69,0.00,,,0.00,weatherlink.com 1.10,2013-04-10 02:08:00,
2013-04-09 19:24:00,54.2,44.0,30.25,North,-999,-999.0,-999.0,69,0.00,,,0.00,weatherlink.com 1.10,2013-04-10 02:24:00,
2013-04-09 19:39:00,53.9,44.0,30.25,North,-999,-999.0,-999.0,69,0.00,,,0.00,weatherlink.com 1.10,2013-04-10 02:39:00,
2013-04-09 19:54:00,53.6,44.0,30.25,North,-999,-999.0,-999.0,70,0.00,,,0.00,weatherlink.com 1.10,2013-04-10 02:54:00,
2013-04-09 20:09:00,53.4,43.0,30.25,North,-999,-999.0,-999.0,69,0.00,,,0.00,weatherlink.com 1.10,2013-04-10 03:09:00,
2013-04-09 20:24:00,53.2,44.0,30.25,North,-999,-999.0,-999.0,70,0.00,,,0.00,weatherlink.com 1.10,2013-04-10 03:24:00,
2013-04-09 20:39:00,52.9,44.0,30.25,North,-999,-999.0,-999.0,71,0.00,,,0.00,weatherlink.com 1.10,2013-04-10 03:39:00,
2013-04-09 20:54:00,52.9,43.0,30.25,North,-999,-999.0,-999.0,70,0.00,,,0.00,weatherlink.com 1.10,2013-04-10 03:54:00,
2013-04-09 21:09:00,53.0,43.0,30.25,North,-999,-999.0,-999.0,70,0.00,,,0.00,weatherlink.com 1.10,2013-04-10 04:09:00,
2013-04-09 21:24:00,52.3,44.0,30.25,North,-999,-999.0,-999.0,73,0.00,,,0.00,weatherlink.com 1.10,2013-04-10 04:24:00,
2013-04-09 21:39:00,51.8,44.0,30.26,North,-999,-999.0,-999.0,76,0.00,,,0.00,weatherlink.com 1.10,2013-04-10 04:39:00,
2013-04-09 21:54:00,51.5,44.0,30.26,North,-999,-999.0,-999.0,76,0.00,,,0.00,weatherlink.com 1.10,2013-04-10 04:54:00,
2013-04-09 22:09:00,51.5,44.0,30.26,North,-999,-999.0,-999.0,75,0.00,,,0.00,weatherlink.com 1.10,2013-04-10 05:09:00,
2013-04-09 22:24:00,51.2,44.0,30.25,North,-999,-999.0,-999.0,76,0.00,,,0.00,weatherlink.com 1.10,2013-04-10 05:24:00,
2013-04-09 22:40:00,51.4,43.0,30.25,North,-999,-999.0,-999.0,73,0.00,,,0.00,weatherlink.com 1.10,2013-04-10 05:40:00,
2013-04-09 22:55:00,51.8,43.0,30.25,North,-999,-999.0,-999.0,72,0.00,,,0.00,weatherlink.com 1.10,2013-04-10 05:55:00,
2013-04-09 23:10:00,52.1,43.0,30.24,North,-999,-999.0,-999.0,71,0.00,,,0.00,weatherlink.com 1.10,2013-04-10 06:10:00,
2013-04-09 23:25:00,52.1,43.0,30.23,North,-999,-999.0,-999.0,70,0.00,,,0.00,weatherlink.com 1.10,2013-04-10 06:25:00,
2013-04-09 23:40:00,52.1,43.0,30.23,North,-999,-999.0,-999.0,70,0.00,,,0.00,weatherlink.com 1.10,2013-04-10 06:40:00,
2013-04-09 23:55:00,51.0,42.0,30.22,North,-999,-999.0,-999.0,72,0.00,,,0.00,weatherlink.com 1.10,2013-04-10 06:55:00,